Time,TemperatureF,DewpointF,PressureIn,WindDirection,WindDirectionDegrees,WindSpeedMPH,WindSpeedGustMPH,Humidity,HourlyPrecipIn,Conditions,Clouds,dailyrainin,SoftwareType,DateUTC
2013-02-19 00:06:00,-1.0,-4.0,30.14,NNE,30,7.0,11.0,89,-99.99,,,-99.99,,2013-02-19 07:06:00,
2013-02-19 00:11:00,-1.0,-4.0,30.14,NW,310,6.0,9.0,88,-99.99,,,-99.99,,2013-02-19 07:11:00,
2013-02-19 00:16:00,-2.0,-5.0,30.14,NW,310,9.0,9.0,87,-99.99,,,-99.99,,2013-02-19 07:16:00,
2013-02-19 00:21:00,-3.0,-5.0,30.14,WNW,300,11.0,12.0,88,-99.99,,,-99.99,,2013-02-19 07:21:00,
2013-02-19 00:31:00,-3.0,-4.0,30.14,North,10,7.0,12.0,91,-99.99,,,-99.99,,2013-02-19 07:31:00,
2013-02-19 00:41:00,-3.0,-6.0,30.14,NNE,20,7.0,9.0,89,-99.99,,,-99.99,,2013-02-19 07:41:00,
2013-02-19 00:46:00,-4.0,-7.0,30.14,North,0,6.0,11.0,88,-99.99,,,-99.99,,2013-02-19 07:46:00,
2013-02-19 00:51:00,-4.0,-6.0,30.14,North,350,10.0,11.0,89,-99.99,,,-99.99,,2013-02-19 07:51:00,
2013-02-19 01:01:00,-3.0,-5.0,30.14,NNW,330,11.0,11.0,91,-99.99,,,-99.99,,2013-02-19 08:01:00,
2013-02-19 01:06:00,-3.0,-5.0,30.15,North,350,8.0,11.0,91,-99.99,,,-99.99,,2013-02-19 08:06:00,
2013-02-19 01:11:00,-4.0,-6.0,30.15,NNE,20,9.0,9.0,89,-99.99,,,-99.99,,2013-02-19 08:11:00,
2013-02-19 01:16:00,-4.0,-7.0,30.14,North,0,6.0,10.0,89,-99.99,,,-99.99,,2013-02-19 08:16:00,
2013-02-19 01:26:00,-5.0,-7.0,30.14,NW,320,10.0,10.0,90,-99.99,,,-99.99,,2013-02-19 08:26:00,
2013-02-19 01:31:00,-4.0,-6.0,30.14,NNW,340,8.0,10.0,90,-99.99,,,-99.99,,2013-02-19 08:31:00,
2013-02-19 01:41:00,-5.0,-7.0,30.14,NNW,330,11.0,11.0,89,-99.99,,,-99.99,,2013-02-19 08:41:00,
2013-02-19 01:51:00,-4.0,-6.0,30.13,WNW,290,9.0,9.0,89,-99.99,,,-99.99,,2013-02-19 08:51:00,
2013-02-19 02:01:00,-5.0,-7.0,30.13,NNW,330,10.0,12.0,89,-99.99,,,-99.99,,2013-02-19 09:01:00,
2013-02-19 02:11:00,-5.0,-7.0,30.13,NE,40,8.0,11.0,91,-99.99,,,-99.99,,2013-02-19 09:11:00,
2013-02-19 02:21:00,-6.0,-9.0,30.13,NNW,340,11.0,11.0,88,-99.99,,,-99.99,,2013-02-19 09:21:00,
2013-02-19 02:31:00,-6.0,-8.0,30.13,North,10,6.0,11.0,91,-99.99,,,-99.99,,2013-02-19 09:31:00,
2013-02-19 02:36:00,-6.0,-8.0,30.12,North,10,9.0,10.0,91,-99.99,,,-99.99,,2013-02-19 09:36:00,
2013-02-19 02:46:00,-7.0,-9.0,30.12,North,350,11.0,11.0,90,-99.99,,,-99.99,,2013-02-19 09:46:00,
2013-02-19 02:56:00,-7.0,-9.0,30.12,North,10,8.0,13.0,91,-99.99,,,-99.99,,2013-02-19 09:56:00,
2013-02-19 03:06:00,-7.0,-9.0,30.11,North,0,7.0,11.0,91,-99.99,,,-99.99,,2013-02-19 10:06:00,
2013-02-19 03:11:00,-7.0,-9.0,30.11,NNW,330,12.0,12.0,91,-99.99,,,-99.99,,2013-02-19 10:11:00,
2013-02-19 03:21:00,-7.0,-9.0,30.11,NNE,30,4.0,11.0,91,-99.99,,,-99.99,,2013-02-19 10:21:00,
2013-02-19 03:26:00,-7.0,-9.0,30.12,North,0,0.0,9.0,90,-99.99,,,-99.99,,2013-02-19 10:26:00,
2013-02-19 03:36:00,-8.0,-10.0,30.11,North,350,7.0,8.0,90,-99.99,,,-99.99,,2013-02-19 10:36:00,
2013-02-19 03:46:00,-8.0,-10.0,30.11,North,10,7.0,10.0,91,-99.99,,,-99.99,,2013-02-19 10:46:00,
2013-02-19 03:51:00,-8.0,-10.0,30.11,North,0,9.0,10.0,91,-99.99,,,-99.99,,2013-02-19 10:51:00,
2013-02-19 03:56:00,-8.0,-9.0,30.11,NW,320,9.0,10.0,91,-99.99,,,-99.99,,2013-02-19 10:56:00,
2013-02-19 04:01:00,-8.0,-10.0,30.10,NW,320,7.0,10.0,91,-99.99,,,-99.99,,2013-02-19 11:01:00,
2013-02-19 04:06:00,-8.0,-10.0,30.10,NW,320,11.0,11.0,91,-99.99,,,-99.99,,2013-02-19 11:06:00,
2013-02-19 04:16:00,-8.0,-10.0,30.10,NW,320,7.0,10.0,90,-99.99,,,-99.99,,2013-02-19 11:16:00,
2013-02-19 04:21:00,-8.0,-10.0,30.09,NNW,340,6.0,11.0,91,-99.99,,,-99.99,,2013-02-19 11:21:00,
2013-02-19 04:26:00,-8.0,-10.0,30.09,NNW,340,11.0,11.0,91,-99.99,,,-99.99,,2013-02-19 11:26:00,
2013-02-19 04:36:00,-8.0,-10.0,30.09,North,10,9.0,12.0,90,-99.99,,,-99.99,,2013-02-19 11:36:00,
2013-02-19 04:41:00,-8.0,-10.0,30.09,North,0,6.0,13.0,90,-99.99,,,-99.99,,2013-02-19 11:41:00,
2013-02-19 04:46:00,-9.0,-11.0,30.09,WNW,300,9.0,12.0,89,-99.99,,,-99.99,,2013-02-19 11:46:00,
2013-02-19 04:51:00,-9.0,-11.0,30.09,NNW,340,10.0,12.0,90,-99.99,,,-99.99,,2013-02-19 11:51:00,
2013-02-19 04:56:00,-9.0,-11.0,30.09,NW,320,11.0,14.0,91,-99.99,,,-99.99,,2013-02-19 11:56:00,
2013-02-19 05:01:00,-9.0,-11.0,30.09,NNW,340,7.0,12.0,91,-99.99,,,-99.99,,2013-02-19 12:01:00,
2013-02-19 05:11:00,-8.0,-10.0,30.09,NNW,330,8.0,12.0,92,-99.99,,,-99.99,,2013-02-19 12:11:00,
2013-02-19 05:16:00,-8.0,-10.0,30.09,North,0,10.0,12.0,93,-99.99,,,-99.99,,2013-02-19 12:16:00,
2013-02-19 05:26:00,-9.0,-11.0,30.08,NNW,330,11.0,11.0,91,-99.99,,,-99.99,,2013-02-19 12:26:00,
2013-02-19 05:36:00,-8.0,-10.0,30.09,WNW,300,11.0,11.0,92,-99.99,,,-99.99,,2013-02-19 12:36:00,
2013-02-19 05:41:00,-9.0,-10.0,30.09,NNW,340,8.0,12.0,91,-99.99,,,-99.99,,2013-02-19 12:41:00,
2013-02-19 05:51:00,-8.0,-10.0,30.09,NNW,340,11.0,13.0,91,-99.99,,,-99.99,,2013-02-19 12:51:00,
2013-02-19 05:56:00,-8.0,-10.0,30.09,North,0,8.0,13.0,91,-99.99,,,-99.99,,2013-02-19 12:56:00,
2013-02-19 06:06:00,-7.0,-9.0,30.09,North,0,0.0,8.0,91,-99.99,,,-99.99,,2013-02-19 13:06:00,
2013-02-19 06:11:00,-8.0,-10.0,30.09,North,0,0.0,0.0,89,-99.99,,,-99.99,,2013-02-19 13:11:00,
2013-02-19 06:21:00,-9.0,-12.0,30.09,North,0,7.0,11.0,88,-99.99,,,-99.99,,2013-02-19 13:21:00,
2013-02-19 06:26:00,-10.0,-12.0,30.09,North,0,7.0,9.0,88,-99.99,,,-99.99,,2013-02-19 13:26:00,
2013-02-19 06:36:00,-10.0,-13.0,30.09,NNW,330,7.0,10.0,89,-99.99,,,-99.99,,2013-02-19 13:36:00,
2013-02-19 06:46:00,-10.0,-12.0,30.09,NNW,340,9.0,11.0,90,-99.99,,,-99.99,,2013-02-19 13:46:00,
2013-02-19 06:51:00,-10.0,-12.0,30.09,NW,310,10.0,11.0,89,-99.99,,,-99.99,,2013-02-19 13:51:00,
2013-02-19 07:01:00,-10.0,-12.0,30.08,North,0,7.0,10.0,91,-99.99,,,-99.99,,2013-02-19 14:01:00,
2013-02-19 07:11:00,-10.0,-13.0,30.09,NNW,340,3.0,9.0,89,-99.99,,,-99.99,,2013-02-19 14:11:00,
2013-02-19 07:21:00,-11.0,-14.0,30.09,NNW,340,8.0,9.0,88,-99.99,,,-99.99,,2013-02-19 14:21:00,
2013-02-19 07:26:00,-11.0,-14.0,30.09,North,0,5.0,10.0,89,-99.99,,,-99.99,,2013-02-19 14:26:00,
2013-02-19 07:31:00,-11.0,-13.0,30.09,NNE,20,0.0,8.0,90,-99.99,,,-99.99,,2013-02-19 14:31:00,
2013-02-19 07:41:00,-11.0,-13.0,30.09,NNW,330,3.0,5.0,90,-99.99,,,-99.99,,2013-02-19 14:41:00,
2013-02-19 07:51:00,-10.0,-12.0,30.09,North,0,7.0,8.0,90,-99.99,,,-99.99,,2013-02-19 14:51:00,
2013-02-19 08:01:00,-9.0,-12.0,30.09,NNW,340,8.0,11.0,90,-99.99,,,-99.99,,2013-02-19 15:01:00,
2013-02-19 08:06:00,-8.0,-10.0,30.09,North,350,10.0,10.0,90,-99.99,,,-99.99,,2013-02-19 15:06:00,
2013-02-19 08:16:00,-7.0,-9.0,30.09,NNW,330,12.0,12.0,89,-99.99,,,-99.99,,2013-02-19 15:16:00,
2013-02-19 08:26:00,-6.0,-8.0,30.09,North,0,7.0,12.0,89,-99.99,,,-99.99,,2013-02-19 15:26:00,
2013-02-19 08:31:00,-6.0,-8.0,30.09,NW,320,6.0,10.0,87,-99.99,,,-99.99,,2013-02-19 15:31:00,
2013-02-19 08:36:00,-5.0,-8.0,30.09,NW,320,0.0,7.0,87,-99.99,,,-99.99,,2013-02-19 15:36:00,
2013-02-19 08:46:00,-6.0,-9.0,30.08,NW,320,7.0,9.0,87,-99.99,,,-99.99,,2013-02-19 15:46:00,
2013-02-19 08:56:00,-5.0,-8.0,30.08,North,0,0.0,8.0,87,-99.99,,,-99.99,,2013-02-19 15:56:00,
2013-02-19 09:06:00,-4.0,-7.0,30.08,NW,310,7.0,7.0,87,-99.99,,,-99.99,,2013-02-19 16:06:00,
2013-02-19 09:11:00,-2.0,-5.0,30.07,NNE,20,4.0,8.0,87,-99.99,,,-99.99,,2013-02-19 16:11:00,
2013-02-19 09:16:00,-2.0,-5.0,30.07,NNE,30,3.0,4.0,85,-99.99,,,-99.99,,2013-02-19 16:16:00,
2013-02-19 09:21:00,-2.0,-5.0,30.07,NNE,30,0.0,5.0,84,-99.99,,,-99.99,,2013-02-19 16:21:00,
2013-02-19 09:31:00,-1.0,-5.0,30.06,North,10,0.0,4.0,82,-99.99,,,-99.99,,2013-02-19 16:31:00,
2013-02-19 09:36:00,0.0,-4.0,30.06,North,10,0.0,0.0,83,-99.99,,,-99.99,,2013-02-19 16:36:00,
2013-02-19 09:41:00,1.0,-4.0,30.06,North,10,0.0,0.0,82,-99.99,,,-99.99,,2013-02-19 16:41:00,
2013-02-19 09:51:00,2.0,-2.0,30.06,North,0,0.0,2.0,80,-99.99,,,-99.99,,2013-02-19 16:51:00,
2013-02-19 10:01:00,3.0,-1.0,30.05,WNW,300,0.0,4.0,81,-99.99,,,-99.99,,2013-02-19 17:01:00,
2013-02-19 10:11:00,4.0,-1.0,30.05,WNW,300,0.0,0.0,78,-99.99,,,-99.99,,2013-02-19 17:11:00,
2013-02-19 10:16:00,4.0,-1.0,30.04,WNW,300,0.0,0.0,77,-99.99,,,-99.99,,2013-02-19 17:16:00,
2013-02-19 10:26:00,6.0,0.0,30.04,North,10,0.0,0.0,76,-99.99,,,-99.99,,2013-02-19 17:26:00,
2013-02-19 10:31:00,6.0,0.0,30.03,North,10,0.0,0.0,76,-99.99,,,-99.99,,2013-02-19 17:31:00,
2013-02-19 10:36:00,8.0,1.0,30.03,WNW,300,3.0,0.0,75,-99.99,,,-99.99,,2013-02-19 17:36:00,
2013-02-19 10:46:00,9.0,2.0,30.03,NW,320,3.0,6.0,74,-99.99,,,-99.99,,2013-02-19 17:46:00,
2013-02-19 10:56:00,10.0,3.0,30.03,NW,320,0.0,3.0,72,-99.99,,,-99.99,,2013-02-19 17:56:00,
2013-02-19 11:01:00,10.0,3.0,30.02,NNW,340,0.0,0.0,71,-99.99,,,-99.99,,2013-02-19 18:01:00,
2013-02-19 11:06:00,11.0,4.0,30.02,SSW,210,5.0,5.0,72,-99.99,,,-99.99,,2013-02-19 18:06:00,
2013-02-19 11:11:00,12.0,5.0,30.02,SSW,200,0.0,4.0,73,-99.99,,,-99.99,,2013-02-19 18:11:00,
2013-02-19 11:21:00,13.0,5.0,30.01,South,190,0.0,3.0,70,-99.99,,,-99.99,,2013-02-19 18:21:00,
2013-02-19 11:26:00,14.0,5.0,30.01,South,190,0.0,0.0,69,-99.99,,,-99.99,,2013-02-19 18:26:00,
2013-02-19 11:31:00,14.0,6.0,30.01,SSW,210,0.0,0.0,69,-99.99,,,-99.99,,2013-02-19 18:31:00,
2013-02-19 11:41:00,15.0,6.0,30.00,SSW,200,3.0,4.0,68,-99.99,,,-99.99,,2013-02-19 18:41:00,
2013-02-19 11:51:00,16.0,6.0,29.99,SSW,200,0.0,0.0,66,-99.99,,,-99.99,,2013-02-19 18:51:00,
2013-02-19 12:01:00,16.0,5.0,29.98,NE,40,0.0,3.0,62,-99.99,,,-99.99,,2013-02-19 19:01:00,
2013-02-19 12:06:00,16.0,5.0,29.98,NE,50,0.0,2.0,62,-99.99,,,-99.99,,2013-02-19 19:06:00,
2013-02-19 12:11:00,17.0,6.0,29.98,NE,50,0.0,0.0,62,-99.99,,,-99.99,,2013-02-19 19:11:00,
2013-02-19 12:16:00,17.0,5.0,29.97,NE,50,0.0,0.0,60,-99.99,,,-99.99,,2013-02-19 19:16:00,
2013-02-19 12:21:00,17.0,7.0,29.97,SSW,210,0.0,4.0,62,-99.99,,,-99.99,,2013-02-19 19:21:00,
2013-02-19 12:26:00,18.0,8.0,29.96,South,190,3.0,5.0,64,-99.99,,,-99.99,,2013-02-19 19:26:00,
2013-02-19 12:36:00,20.0,9.0,29.96,South,170,3.0,6.0,63,-99.99,,,-99.99,,2013-02-19 19:36:00,
2013-02-19 12:41:00,20.0,9.0,29.95,SE,130,0.0,5.0,63,-99.99,,,-99.99,,2013-02-19 19:41:00,
2013-02-19 12:51:00,20.0,9.0,29.94,South,190,4.0,5.0,61,-99.99,,,-99.99,,2013-02-19 19:51:00,
2013-02-19 12:56:00,21.0,11.0,29.94,South,170,3.0,5.0,64,-99.99,,,-99.99,,2013-02-19 19:56:00,
2013-02-19 13:01:00,21.0,10.0,29.93,South,170,0.0,4.0,60,-99.99,,,-99.99,,2013-02-19 20:01:00,
2013-02-19 13:06:00,22.0,11.0,29.92,SW,220,0.0,4.0,62,-99.99,,,-99.99,,2013-02-19 20:06:00,
2013-02-19 13:16:00,22.0,10.0,29.92,SSE,160,0.0,4.0,59,-99.99,,,-99.99,,2013-02-19 20:16:00,
2013-02-19 13:21:00,23.0,11.0,29.91,SSE,160,0.0,0.0,59,-99.99,,,-99.99,,2013-02-19 20:21:00,
2013-02-19 13:26:00,23.0,9.0,29.91,North,350,0.0,3.0,55,-99.99,,,-99.99,,2013-02-19 20:26:00,
2013-02-19 13:32:00,23.0,8.0,29.91,North,350,0.0,0.0,53,-99.99,,,-99.99,,2013-02-19 20:32:00,
2013-02-19 13:41:00,23.0,9.0,29.91,SSW,200,3.0,0.0,54,-99.99,,,-99.99,,2013-02-19 20:41:00,
2013-02-19 13:51:00,24.0,10.0,29.89,SSW,200,0.0,0.0,55,-99.99,,,-99.99,,2013-02-19 20:51:00,
2013-02-19 14:01:00,25.0,12.0,29.89,South,180,3.0,4.0,56,-99.99,,,-99.99,,2013-02-19 21:01:00,
2013-02-19 14:06:00,25.0,12.0,29.88,South,180,0.0,3.0,56,-99.99,,,-99.99,,2013-02-19 21:06:00,
2013-02-19 14:16:00,25.0,9.0,29.88,South,180,0.0,0.0,51,-99.99,,,-99.99,,2013-02-19 21:16:00,
2013-02-19 14:21:00,25.0,10.0,29.87,South,180,0.0,0.0,52,-99.99,,,-99.99,,2013-02-19 21:21:00,
2013-02-19 14:31:00,25.0,10.0,29.87,South,180,0.0,0.0,51,-99.99,,,-99.99,,2013-02-19 21:31:00,
2013-02-19 14:41:00,26.0,10.0,29.87,South,170,3.0,0.0,50,-99.99,,,-99.99,,2013-02-19 21:41:00,
2013-02-19 14:46:00,26.0,11.0,29.87,SSE,150,3.0,4.0,53,-99.99,,,-99.99,,2013-02-19 21:46:00,
2013-02-19 14:51:00,26.0,12.0,29.87,SSE,150,0.0,5.0,54,-99.99,,,-99.99,,2013-02-19 21:51:00,
2013-02-19 15:01:00,24.0,10.0,29.87,ESE,110,0.0,2.0,56,-99.99,,,-99.99,,2013-02-19 22:01:00,
2013-02-19 15:06:00,23.0,10.0,29.86,ESE,110,0.0,3.0,57,-99.99,,,-99.99,,2013-02-19 22:06:00,
2013-02-19 15:11:00,23.0,10.0,29.86,ESE,110,0.0,0.0,57,-99.99,,,-99.99,,2013-02-19 22:11:00,
2013-02-19 15:16:00,23.0,11.0,29.86,ESE,110,0.0,0.0,58,-99.99,,,-99.99,,2013-02-19 22:16:00,
2013-02-19 15:21:00,23.0,11.0,29.86,ESE,110,0.0,0.0,58,-99.99,,,-99.99,,2013-02-19 22:21:00,
2013-02-19 15:26:00,23.0,10.0,29.86,ESE,110,0.0,0.0,58,-99.99,,,-99.99,,2013-02-19 22:26:00,
2013-02-19 15:31:00,23.0,10.0,29.86,ESE,110,0.0,0.0,59,-99.99,,,-99.99,,2013-02-19 22:31:00,
2013-02-19 15:41:00,23.0,10.0,29.86,ESE,110,0.0,0.0,59,-99.99,,,-99.99,,2013-02-19 22:41:00,
2013-02-19 15:51:00,23.0,12.0,29.85,ESE,110,0.0,0.0,62,-99.99,,,-99.99,,2013-02-19 22:51:00,
2013-02-19 16:01:00,23.0,11.0,29.85,ESE,110,0.0,0.0,59,-99.99,,,-99.99,,2013-02-19 23:01:00,
2013-02-19 16:06:00,22.0,10.0,29.84,ESE,110,0.0,0.0,60,-99.99,,,-99.99,,2013-02-19 23:06:00,
2013-02-19 16:11:00,22.0,11.0,29.84,ESE,110,0.0,0.0,60,-99.99,,,-99.99,,2013-02-19 23:11:00,
2013-02-19 16:16:00,22.0,11.0,29.84,ESE,110,0.0,0.0,60,-99.99,,,-99.99,,2013-02-19 23:16:00,
2013-02-19 16:21:00,23.0,11.0,29.84,ESE,110,0.0,0.0,60,-99.99,,,-99.99,,2013-02-19 23:21:00,
2013-02-19 16:26:00,22.0,11.0,29.83,ESE,110,0.0,0.0,60,-99.99,,,-99.99,,2013-02-19 23:26:00,
2013-02-19 16:36:00,22.0,10.0,29.83,ESE,110,0.0,0.0,60,-99.99,,,-99.99,,2013-02-19 23:36:00,
2013-02-19 16:41:00,22.0,11.0,29.83,ESE,110,0.0,0.0,62,-99.99,,,-99.99,,2013-02-19 23:41:00,
2013-02-19 16:51:00,23.0,12.0,29.83,ESE,110,0.0,0.0,62,-99.99,,,-99.99,,2013-02-19 23:51:00,
2013-02-19 17:01:00,23.0,11.0,29.83,ESE,110,0.0,0.0,61,-99.99,,,-99.99,,2013-02-20 00:01:00,
2013-02-19 17:11:00,22.0,11.0,29.83,ESE,110,0.0,0.0,61,-99.99,,,-99.99,,2013-02-20 00:11:00,
2013-02-19 17:16:00,22.0,12.0,29.83,ESE,110,0.0,0.0,63,-99.99,,,-99.99,,2013-02-20 00:16:00,
2013-02-19 17:26:00,22.0,12.0,29.83,ESE,110,0.0,0.0,64,-99.99,,,-99.99,,2013-02-20 00:26:00,
2013-02-19 17:36:00,21.0,11.0,29.83,ESE,110,0.0,0.0,64,-99.99,,,-99.99,,2013-02-20 00:36:00,
2013-02-19 17:41:00,21.0,11.0,29.83,ESE,110,0.0,0.0,65,-99.99,,,-99.99,,2013-02-20 00:41:00,
2013-02-19 17:46:00,21.0,11.0,29.83,ESE,110,0.0,0.0,66,-99.99,,,-99.99,,2013-02-20 00:46:00,
2013-02-19 17:56:00,20.0,11.0,29.82,ESE,110,0.0,0.0,68,-99.99,,,-99.99,,2013-02-20 00:56:00,
2013-02-19 18:06:00,19.0,11.0,29.82,ESE,110,0.0,0.0,70,-99.99,,,-99.99,,2013-02-20 01:06:00,
2013-02-19 18:16:00,18.0,11.0,29.83,WNW,290,0.0,3.0,71,-99.99,,,-99.99,,2013-02-20 01:16:00,
2013-02-19 18:21:00,18.0,10.0,29.83,WNW,290,0.0,0.0,71,-99.99,,,-99.99,,2013-02-20 01:21:00,
2013-02-19 18:31:00,17.0,10.0,29.83,NW,320,5.0,5.0,73,-99.99,,,-99.99,,2013-02-20 01:31:00,
2013-02-19 18:36:00,17.0,10.0,29.83,North,10,0.0,5.0,73,-99.99,,,-99.99,,2013-02-20 01:36:00,
2013-02-19 18:41:00,17.0,10.0,29.83,NNW,330,0.0,4.0,74,-99.99,,,-99.99,,2013-02-20 01:41:00,
2013-02-19 18:46:00,16.0,9.0,29.83,NNW,330,0.0,0.0,73,-99.99,,,-99.99,,2013-02-20 01:46:00,
2013-02-19 18:56:00,15.0,8.0,29.82,NNW,330,0.0,0.0,73,-99.99,,,-99.99,,2013-02-20 01:56:00,
2013-02-19 19:06:00,15.0,8.0,29.82,NW,320,0.0,0.0,75,-99.99,,,-99.99,,2013-02-20 02:06:00,
2013-02-19 19:11:00,14.0,8.0,29.81,North,350,0.0,5.0,75,-99.99,,,-99.99,,2013-02-20 02:11:00,
2013-02-19 19:16:00,14.0,8.0,29.81,North,350,0.0,4.0,76,-99.99,,,-99.99,,2013-02-20 02:16:00,
2013-02-19 19:26:00,13.0,7.0,29.82,NW,320,5.0,5.0,75,-99.99,,,-99.99,,2013-02-20 02:26:00,
2013-02-19 19:36:00,13.0,7.0,29.81,NNW,330,7.0,7.0,76,-99.99,,,-99.99,,2013-02-20 02:36:00,
2013-02-19 19:41:00,13.0,6.0,29.81,NNW,340,6.0,6.0,75,-99.99,,,-99.99,,2013-02-20 02:41:00,
2013-02-19 19:51:00,12.0,6.0,29.80,NNW,340,6.0,6.0,75,-99.99,,,-99.99,,2013-02-20 02:51:00,
2013-02-19 20:01:00,12.0,5.0,29.80,North,0,6.0,6.0,75,-99.99,,,-99.99,,2013-02-20 03:01:00,
2013-02-19 20:06:00,11.0,5.0,29.79,NNW,340,0.0,6.0,76,-99.99,,,-99.99,,2013-02-20 03:06:00,
2013-02-19 20:11:00,11.0,5.0,29.79,NNW,340,0.0,5.0,77,-99.99,,,-99.99,,2013-02-20 03:11:00,
2013-02-19 20:21:00,10.0,5.0,29.80,WNW,300,6.0,6.0,77,-99.99,,,-99.99,,2013-02-20 03:21:00,
2013-02-19 20:31:00,10.0,5.0,29.79,NNW,330,9.0,9.0,80,-99.99,,,-99.99,,2013-02-20 03:31:00,
2013-02-19 20:36:00,10.0,5.0,29.79,NNW,330,8.0,9.0,80,-99.99,,,-99.99,,2013-02-20 03:36:00,
2013-02-19 20:41:00,10.0,5.0,29.80,NNW,340,6.0,8.0,79,-99.99,,,-99.99,,2013-02-20 03:41:00,
2013-02-19 20:46:00,10.0,5.0,29.79,NNE,30,3.0,8.0,79,-99.99,,,-99.99,,2013-02-20 03:46:00,
2013-02-19 20:56:00,10.0,5.0,29.79,NNE,30,0.0,0.0,79,-99.99,,,-99.99,,2013-02-20 03:56:00,
2013-02-19 21:06:00,9.0,4.0,29.79,NNW,330,8.0,8.0,78,-99.99,,,-99.99,,2013-02-20 04:06:00,
2013-02-19 21:11:00,9.0,4.0,29.79,North,0,3.0,9.0,79,-99.99,,,-99.99,,2013-02-20 04:11:00,
2013-02-19 21:16:00,9.0,4.0,29.79,North,0,0.0,5.0,79,-99.99,,,-99.99,,2013-02-20 04:16:00,
2013-02-19 21:21:00,9.0,4.0,29.79,North,0,0.0,3.0,80,-99.99,,,-99.99,,2013-02-20 04:21:00,
2013-02-19 21:26:00,9.0,4.0,29.79,North,0,0.0,0.0,79,-99.99,,,-99.99,,2013-02-20 04:26:00,
2013-02-19 21:36:00,9.0,4.0,29.79,NW,320,0.0,0.0,79,-99.99,,,-99.99,,2013-02-20 04:36:00,
2013-02-19 21:41:00,9.0,4.0,29.79,NW,310,0.0,6.0,80,-99.99,,,-99.99,,2013-02-20 04:41:00,
2013-02-19 21:46:00,9.0,4.0,29.79,NW,310,0.0,6.0,80,-99.99,,,-99.99,,2013-02-20 04:46:00,
2013-02-19 21:51:00,9.0,4.0,29.79,NW,310,0.0,3.0,81,-99.99,,,-99.99,,2013-02-20 04:51:00,
2013-02-19 21:56:00,9.0,4.0,29.78,NW,310,0.0,0.0,81,-99.99,,,-99.99,,2013-02-20 04:56:00,
2013-02-19 22:01:00,9.0,4.0,29.78,NW,310,0.0,0.0,80,-99.99,,,-99.99,,2013-02-20 05:01:00,
2013-02-19 22:11:00,9.0,4.0,29.78,NNW,340,6.0,9.0,80,-99.99,,,-99.99,,2013-02-20 05:11:00,
2013-02-19 22:16:00,9.0,4.0,29.78,NW,320,7.0,9.0,81,-99.99,,,-99.99,,2013-02-20 05:16:00,
2013-02-19 22:21:00,9.0,4.0,29.78,NNW,340,9.0,10.0,80,-99.99,,,-99.99,,2013-02-20 05:21:00,
2013-02-19 22:31:00,10.0,5.0,29.78,NNE,20,0.0,9.0,79,-99.99,,,-99.99,,2013-02-20 05:31:00,
2013-02-19 22:41:00,9.0,4.0,29.78,NNE,30,0.0,0.0,78,-99.99,,,-99.99,,2013-02-20 05:41:00,
2013-02-19 22:46:00,9.0,4.0,29.78,NNE,30,0.0,0.0,79,-99.99,,,-99.99,,2013-02-20 05:46:00,
2013-02-19 22:51:00,9.0,4.0,29.78,NNE,30,0.0,2.0,79,-99.99,,,-99.99,,2013-02-20 05:51:00,
2013-02-19 22:56:00,9.0,3.0,29.77,NW,320,8.0,9.0,79,-99.99,,,-99.99,,2013-02-20 05:56:00,
2013-02-19 23:06:00,9.0,4.0,29.77,North,0,7.0,11.0,80,-99.99,,,-99.99,,2013-02-20 06:06:00,
2013-02-19 23:16:00,9.0,5.0,29.77,NNW,330,7.0,10.0,82,-99.99,,,-99.99,,2013-02-20 06:16:00,
2013-02-19 23:21:00,9.0,5.0,29.77,North,0,9.0,10.0,83,-99.99,,,-99.99,,2013-02-20 06:21:00,
2013-02-19 23:26:00,10.0,5.0,29.77,NNW,340,10.0,11.0,83,-99.99,,,-99.99,,2013-02-20 06:26:00,
2013-02-19 23:36:00,10.0,6.0,29.76,NNW,330,6.0,11.0,83,-99.99,,,-99.99,,2013-02-20 06:36:00,
2013-02-19 23:46:00,9.0,4.0,29.76,North,0,6.0,10.0,80,-99.99,,,-99.99,,2013-02-20 06:46:00,
2013-02-19 23:51:00,8.0,3.0,29.76,North,350,6.0,10.0,81,-99.99,,,-99.99,,2013-02-20 06:51:00,
2013-02-19 23:56:00,8.0,3.0,29.76,NNW,330,6.0,9.0,83,-99.99,,,-99.99,,2013-02-20 06:56:00,